Midwest Catholic Cross Country Championships 2019

Kettering, OH

Midwest Catholic Cross Country Championships 2019 vs Midwest Catholic Championships 2016

Aggregate Data Points
Difference This Meet That Meet
Overall Athletes +57 901 844
Overall Average +45.42 23:11.29 22:25.86
1st-10th Place +9.80 16:41.63 16:31.83
1st-25th Place +13.57 17:05.24 16:51.67
1st-50th Place +15.26 17:23.69 17:08.43
1st-100th Place +15.47 17:48.85 17:33.39
Common Athletes -- -- 73
Ran Faster 33 53 20
Ran Season Best -3 4 7
Average Time -54.44 21:29.76 22:24.20
Median Time -1:36.30 20:16.30 21:52.60
Middle 80% Times -1:01.83 21:09.56 22:11.39
Top 10% Times -53.01 17:26.66 18:19.68
Top 25% Times -1:17.89 17:48.02 19:05.91
Top 50% Times -1:25.03 18:36.89 20:01.92
Bottom 50% Times -22.38 23:47.77 24:10.15
Bottom 25% Times +9.18 26:45.00 26:35.82
Bottom 10% Times +8.79 29:19.29 29:10.50
Average Difference -54.44 -- --
Median Difference -1:56.60 -- --
Middle 80% Difference -1:05.59 -- --
Top 10% Difference -46.66 -- --
Top 50% Difference -1:15.28 -- --
Top 25% Difference -49.06 -- --
Top 50% Difference -1:15.28 -- --
Bottom 50% Difference -35.28 -- --
Bottom 25% Difference +27.73 -- --
Bottom 10% Difference +13.16 -- --

Performances of Common Athletes
Athlete Team Difference This Meet That Meet
Liam Seiple St. Johns Jesuit -1:29.00 17:08.10 18:37.10
Connor Magness Elder -2:20.60 17:08.90 19:29.50
Michael Osgood Carroll -2:32.10 17:13.10 19:45.20
Mark Schweinberg Elder -1:43.70 17:34.40 19:18.10
Grant Arnold Carroll -1.70 17:35.10 17:36.80
Sean Gideon Cham. Julienne -3:22.70 17:36.50 20:59.20
Nick Steel Akron SVSM -1:43.10 17:38.50 19:21.60
Liam Brian St. Edward -2:23.10 17:38.70 20:01.80
Andrew Connair Carroll -3:37.10 17:39.30 21:16.40
Roman Marra St. Johns Jesuit -1:15.80 17:43.00 18:58.80
Theo Miller Tol. St. Francis -3:09.90 17:43.60 20:53.50
Daniel Condrich St. Edward +17.20 18:07.90 17:50.70
Ben Wimmers Elder -8.90 17:53.90 18:02.80
Quentin Potempa Lima C.C. -2:42.80 17:57.70 20:40.50
Eli Darnell Elder -3:05.00 18:08.40 21:13.40
Brooks Boschert Covington Catholic -2:20.90 18:09.90 20:30.80
Andrew Sander Elder +1:25.30 19:38.20 18:12.90
Kevin Rybka Akron SVSM -8.30 18:19.20 18:27.50
Brendan Keller LaSalle -1:35.80 18:27.00 20:02.80
Dylan Barnett Cle. VASJ -1:32.70 18:29.10 20:01.80
Michael Johnston Alter -1:18.10 18:49.60 20:07.70
Jacob Schulte Covington Catholic -44.90 18:50.60 19:35.50
Trey Myers Cham. Julienne +35.60 19:26.40 18:50.80
Ben Chartrand Fenwick -53.00 18:58.20 19:51.20
Ian Hale Moeller -2:22.70 19:08.80 21:31.50
Alex Kent Covington Catholic -1:20.30 19:10.10 20:30.40
William Thomas LaSalle +15.10 19:30.80 19:15.70
Kyle Sokolis Elder -1:15.40 19:17.60 20:33.00
Will Speigle Moeller -4:41.20 19:18.30 23:59.50
Jonathon Stentz Moeller -1:50.90 19:19.70 21:10.60
Todd Jokerst Carroll -4:22.20 19:27.00 23:49.20
Nicholas Momper Moeller -1:54.50 19:29.60 21:24.10
Ethan Cepluch Moeller +27.40 19:59.10 19:31.70
Jackson Sinnard Elder -3:49.10 19:31.90 23:21.00
Jacob Bingham Bloomington Central Catholic High School -1:56.60 20:08.10 22:04.70
Davante Callahan Cle. VASJ -2:52.30 20:12.50 23:04.80
Alex Bingham Bloomington Central Catholic High School -1:49.10 20:16.30 22:05.40
Natalie Tobin Akron SVSM -1:23.50 20:29.10 21:52.60
Tommy Roebker Covington Catholic +3.40 20:42.60 20:39.20
Molly Mulvaney Cin. St. Ursula Acad. -12.20 20:53.90 21:06.10
Lucy Hansen Ursuline Academy +29.20 21:24.70 20:55.50
Phillip Davis Cle. VASJ -1:51.50 21:02.20 22:53.70
Andrew Morrissey Moeller -1:10.30 21:13.70 22:24.00
Zach Skufca Moeller +26.70 21:47.10 21:20.40
Lizzie Schreyer McAuley High School +34.50 22:08.50 21:34.00
Kate Finn Cin. St. Ursula Acad. +4:32.60 26:26.20 21:53.60
Gareth Fultz Fenwick -2:33.70 22:07.90 24:41.60
James DeWall Carroll +1.60 22:13.40 22:11.80
Max Barcomb Moeller -2:27.00 22:14.50 24:41.50
Lani Hinton Mercy McAuley -1:05.10 22:16.70 23:21.80
Ethan Bock Moeller -39.80 22:17.90 22:57.70
Kaitlyn Dappen Bloomington Central Catholic High School -2:28.10 22:20.30 24:48.40
Grace-Anne Berkmeyer Ursuline Academy +3:18.30 25:54.70 22:36.40
Addison Werling Mt. Notre Dame -39.80 22:47.40 23:27.20
Grace Nordwick Ursuline Academy -1:33.70 22:53.80 24:27.50
Jasmine Howard Ursuline Academy +2:56.30 25:55.60 22:59.30
Grace Sunderman McAuley High School +2:56.10 26:02.70 23:06.60
Hailey Baca Cin. St. Ursula Acad. +3:45.40 26:53.10 23:07.70
Cecilia Leopold Carroll -41.70 23:18.80 24:00.50
Nora Jackson Alter +4:39.40 28:09.30 23:29.90
Gretchen Waning Mt. Notre Dame -29.30 23:36.10 24:05.40
Caroline Hemmer Cin. St. Ursula Acad. -59.50 23:37.70 24:37.20
Sarah Hogan Cham. Julienne -2:46.20 23:50.70 26:36.90
Ashley Maio Canton C.C. -1:43.50 23:54.20 25:37.70
Norah Meisch Cin. St. Ursula Acad. -2:47.20 24:24.00 27:11.20
Jared Addessi Canton C.C. -49.80 24:57.20 25:47.00
Maggie Bowers Ursuline Academy -5.80 25:04.50 25:10.30
Heidi Gruber Cin. St. Ursula Acad. -3:03.00 26:23.30 29:26.30
Lucy Schoen Alter +3.40 27:13.30 27:09.90
Lydia McClure Ursuline Academy -1:35.70 28:28.40 30:04.10
Anthea Weisman Ursuline Academy +38.10 29:45.10 29:07.00
Leah Bley Mother of Mercy +1:30.80 32:47.30 31:16.50
Emma Howey Carroll +2:19.50 34:51.60 32:32.10